This is the latest recevied weather packets stored in our database for station/object OE7BJT-13. If no packets are shown the sender has not sent any weather packets the latest 10 day(s).
| Time | Temp. | Humidity | Pressure | Rain* | Wind** | Luminosity | Snow |
|---|---|---|---|---|---|---|---|
| 1777900044 | 26.67° C | 22% | 1011 hPa | - | - | - | - |
| 1777899439 | 28.33° C | 23% | 1012 hPa | - | - | - | - |
| 1777898228 | 28.89° C | 24% | 1012 hPa | - | - | - | - |
| 1777897622 | 27.78° C | 24% | 1012 hPa | - | - | - | - |
| 1777897016 | 27.22° C | 25% | 1012 hPa | - | - | - | - |
| 1777896411 | 27.78° C | 25% | 1012 hPa | - | - | - | - |
| 1777895805 | 28.33° C | 26% | 1012 hPa | - | - | - | - |
| 1777895200 | 28.89° C | 27% | 1012 hPa | - | - | - | - |
| 1777894594 | 27.78° C | 26% | 1012 hPa | - | - | - | - |
| 1777893988 | 26.67° C | 26% | 1012 hPa | - | - | - | - |
| 1777893383 | 25.56° C | 28% | 1013 hPa | - | - | - | - |
| 1777892777 | 26.67° C | 27% | 1013 hPa | - | - | - | - |
| 1777892172 | 26.11° C | 33% | 1013 hPa | - | - | - | - |
| 1777891566 | 27.22° C | 30% | 1013 hPa | - | - | - | - |
| 1777890355 | 24.44° C | 31% | 1014 hPa | - | - | - | - |
| 1777889749 | 25° C | 34% | 1014 hPa | - | - | - | - |
| 1777889144 | 26.11° C | 31% | 1014 hPa | - | - | - | - |
| 1777888538 | 26.11° C | 31% | 1014 hPa | - | - | - | - |
| 1777887932 | 25° C | 36% | 1014 hPa | - | - | - | - |
| 1777887327 | 23.33° C | 37% | 1014 hPa | - | - | - | - |
| 1777886721 | 22.78° C | 38% | 1014 hPa | - | - | - | - |
| 1777886116 | 23.33° C | 40% | 1015 hPa | - | - | - | - |
| 1777885510 | 22.22° C | 40% | 1015 hPa | - | - | - | - |
| 1777884904 | 22.22° C | 38% | 1015 hPa | - | - | - | - |
| 1777884299 | 22.22° C | 42% | 1015 hPa | - | - | - | - |
* Rain since midnight (hover to see other rain measurements)
** Current wind speed in m/s (hover to see current wind gust speed)